Location: downtown San Diego
(32.7310°N, 117.1990°W)
Time: 18:13:19
(UTC-07:00)

Cosmos 1745 Rocket - Pass Details

Date: 19 May 2017
Orbit: 954 x 997 km, 83.0° (Epoch: 23 September)

Event Time Altitude Azimuth Distance (km) Brightness Sun altitude
Rises 20:02:32 0° 358° (N) 3,721 7.5 -4.4°
Reaches altitude 10° 20:05:07 10° 2° (N) 2,766 6.7 -4.9°
Maximum altitude 20:11:23 60° 82° (E) 1,127 4.2 -6.0°
Drops below altitude 10° 20:17:34 10° 162° (SSE) 2,731 5.9 -7.2°
Sets 20:20:06 0° 165° (SSE) 3,670 6.6 -7.6°
